PEGASUS R/B

Satellite information

Favourite Embed

Satellite Type and Status

ROCKET BODYIN ORBIT

Key statistics

Satellite PEGASUS R/B at a glance.

Uptime

7999

Days in orbit

Revolutions

≈ 14.9

Per day

Orbit

LEO

Low Earth Orbit

Inclination

73.9

Latest

Satellite identification and parameters

Extended collection of information and parameters for PEGASUS R/B.

Object identification

Identified? True

Debris? False

Object name: PEGASUS R/B

International designator: 2003-036B

Object number (NORAD): 27859

Object ID (CCSDS): 27859

Country: UNITED STATES OF AMERICA (US)

Current information (Y/N): Y

RCS size: LARGE

Orbital parameters

Period: 96.875 minutes

Inclination: 73.9257 deg

SMA: 6987.164 km

Apoapsis: 614.78 km

Periapsis: 603.279 km

RAAN: 68.6276 deg

Eccentricy: 0.000823

Argument of periapsis: 254.4947 deg

Mean anomaly: 105.5324 deg

Mean motion: 14.86453527 rev/day

Mean motion (dot): 0.0000095 rev/day2

B* drag term: 0.00011183 1/REarth

Two-line elements (TLE)

Creation date: July 6, 2025, 6:05 p.m.

Reference frame: TEME

Reference center: EARTH

Epoch: July 6, 2025, 3:06 a.m. UTC

TLE line 0: 0 PEGASUS R/B

TLE line 1: 1 27859U 03036B 25187.12926919 .00000950 00000-0 11183-3 0 9996

TLE line 2: 2 27859 73.9257 68.6276 0008230 254.4947 105.5324 14.86453527182342

Live tracking on map

Real-time ground track for satellite PEGASUS R/B.

In-orbit conjunctions

A list of the most updated potential collisions computed for object PEGASUS R/B.

Target Orbit TCA Probability of collision Miss distance Type
SL-16 DEB LEO 2025-05-10 14:55:33 0.0001043967 793.0 (m) DEBRIS
CZ-6A DEB LEO 2024-12-23 08:18:12 0.001081901 562.0 (m) DEBRIS
CZ-2C DEB SSO 2024-10-26 19:10:47 0.0001366377 309.0 (m) DEBRIS

Associated space launch

PEGASUS R/B was lifted into orbit during the mission ‘Pegasus XL | SCISAT-1’, on board a Pegasus XL space rocket.

The launch took place on Aug. 13, 2003, 2:09 a.m. from Vandenberg Space Force Base.

For more information about the launch, click the button.

Launch to space Pegasus XL | SCISAT-1
Pegasus XL | SCISAT-1

Agency: N/A

Status: Launch Successful

Launch date: Aug. 13, 2003, 2:09 a.m. UTC

Rocket: Pegasus XL

Launch pad: Vandenberg Space Force Base

Location: Air launch to orbit

...

Latest news about this satellite

There are no fresh news available about this satellite. Check back as we update our databases every day.


Newsletter sign-up

Weekly statistics, charts and insights to help you stay on top of the space industry.